铱星星座 71星 (IRIDIUM 71)

导读 | 豆包AI

IRIDIUM 71是美国铱星系统中的一颗通信卫星,于1998年5月2日发射升空。铱星系统是由美国摩托罗拉公司主导打造的低轨全球移动通信系统,原计划部署77颗卫星,后调整为66颗,因对应铱原子电子数得名。作为星座组网卫星之一,IRIDIUM 71运行在近地极地轨道,依托星上交换与星际链路,可覆盖全球包括极地在内区域,支持语音、数据等全球移动通信服务。

基本信息
目录编号:
25320
目录名称:
IRIDIUM 71
国际标识:
1998-026B
轨道中心:
EARTH
卫星名称:
铱星星座 71星
卫星全名:
铱星星座 71星 (IRIDIUM 71)
卫星状态:
在轨 (已飞行10179 天)
发射日期:
1998-05-02 UTC
国别 :
美国 (US)
星等 :
--
轨道信息
数据来源 国际轨道数据
星历时间: 2026-03-15T13:49:16+0800
7小时前
查看轨道信息
半长轴: 7131.973km
偏心率: 0.0000281
轨道倾角: 86.402°
近地点辐角 9.833°
升交点赤经 335.518°
平近点角 350.288°
近地点: 753.635km
远地点: 754.037km
周期: 99.902分钟
每日圈数: 14.414125
详细信息
平衡模式:
三轴稳定
覆盖范围:
全球
运营商:
铱星通信公司
运营商所在国:
美国
使用方式:
暂无
卫星简介
铱星(Iridium)是由共66个运作中的通信卫星组成的卫星通信系统。这个系统原本规划77个通信卫星,所以用原子序数为77的铱元素来命名。铱卫星允许人们使用手持型电子设备进行全球性的语音及数据通讯。该卫星已退役。
2D轨道图
3D轨道图
轨道高度分析图
轨道倾角分析图
轨道综合分析图
查看轨道综合分析图